STARLINK-37651, 69353

Orbit data source: Space-Track

STARLINK-37651, 69353 is a payload satellite owned by SpaceX/Seattle (US) in LEO that was launched on Thu, 04 Jun 2026 UTC via an FALCON 9 launch vehicle from the Air Force Eastern Test Range (AFETR). Payload-class satellites include a variety of spacecraft equipped with specific instruments for various scientific and technological missions. These include communications satellites like Starlink; space stations such as the ISS; scientific satellites like the Hubble; Earth observation satellites from companies like Planet Labs, Umbra, and HawkEye 360; GPS; miniature CubeSats for education and research; and military/defense satellites.

Loading next visibility...
Identifier
69353, 2026-123A
Orbit
LEO
Country
Flag of USUS
Related business
Manufacturer
SpaceX/Seattle
Mission
Operational spacecraft
Bus & Motor
STARLINK V2MO, Unknown motor
Mass
575 kg wet, ~530 kg dry
Launch date (UTC)
2026-06-04 (2 months ago)
Launch vehicle
FALCON 9
Launch site
Air Force Eastern Test Range (AFETR)
Object type
Payload
Rocket body
Debris
Shape & HBR
BOX + PAN, 17.7 m
Radar Cross Section
Large (>1 m²)

Expand to show TLE details & history
Last TLE update: 19 hours ago

TLE from 19 hours ago
0 STARLINK-37651
1 69353U 26123A   26207.13952359  .00058733  00000-0  38369-3 0  9992
2 69353  53.1618  47.6148 0003152  27.9404 332.1785 15.75292946  8185
Epoch: 2026-07-26T03:20Z
TLE epoch observation values (Epoch: 2026-07-26T03:20:54.838Z)
Latitude
-0.00001°
Longitude
53.54456°
Altitude
342.841 km
Speed
7.705 km/s
True Right ascension
03h 10m 27s
True Declination
0° 00' 00"
Sunlit
Object was in daylight at epoch
Visualization orbit readout
Latitude
Unknown
Longitude
Unknown
Altitude
Unknown
Speed
Unknown
Apparent Right ascension
Unknown
Apparent Declination
Unknown
Sunlit
N/A
Visualization observer readout
Local Sidereal Time
11:36:32
Azimuth
Unknown
Elevation
Unknown
Doppler factor
Unknown
Orbital elements
Apogee altitude
346.178 km
Perigee altitude
341.94 km
Semi-major axis
6,722.196 km
Eccentricity
0.00032
Inclination
53.1618°
RAAN
47.6148°
Arg. of periapsis
27.9404°
True anomaly
332.16164°
Mean anomaly
332.1785°
Eccentric anomaly
332.17007°
Mean motion
3.93801 °/min
Orbital period
91.42 mins
BSTAR
0.00038369
Loading maneuver chart data...
Computing Atmospheric mass density...
Loading historical data...
Loading historical data...
Loading historical data...
Loading historical data...
Loading historical data...
Loading historical data...
Loading historical data...

Documentation

Showing up to 5 results
|